Spirit Lake Weather Center

Moon Phase Calendar



Spirit Lake Water Level
Online Cameras

 


      

Current Conditions in Spirit Lake
12/9/2022 11:48:28 PM

30°F
Feels Like 26
Clouds
Humidity
76%
Pressure
30.12"
Wind
4 mph (S)
Dew Point
25°F
UV Index
0/10 (Low)
Visibility
2 mi

Hourly Forecast

Date & Time Fri, Dec 9
11:00 PM
Sat, Dec 10
12:00 AM
Sat, Dec 10
1:00 AM
Sat, Dec 10
2:00 AM
Sat, Dec 10
3:00 AM
Sat, Dec 10
4:00 AM
Sat, Dec 10
5:00 AM
Sat, Dec 10
6:00 AM
Sat, Dec 10
7:00 AM
Sat, Dec 10
8:00 AM
Sat, Dec 10
9:00 AM
Sat, Dec 10
10:00 AM
Sat, Dec 10
11:00 AM
Sat, Dec 10
12:00 PM
Sat, Dec 10
1:00 PM
Sat, Dec 10
2:00 PM
Sat, Dec 10
3:00 PM
Sat, Dec 10
4:00 PM
Sat, Dec 10
5:00 PM
Sat, Dec 10
6:00 PM
Sat, Dec 10
7:00 PM
Sat, Dec 10
8:00 PM
Sat, Dec 10
9:00 PM
Sat, Dec 10
10:00 PM
Sat, Dec 10
11:00 PM
Sun, Dec 11
12:00 AM
Sun, Dec 11
1:00 AM
Sun, Dec 11
2:00 AM
Sun, Dec 11
3:00 AM
Sun, Dec 11
4:00 AM
Sun, Dec 11
5:00 AM
Sun, Dec 11
6:00 AM
Sun, Dec 11
7:00 AM
Sun, Dec 11
8:00 AM
Sun, Dec 11
9:00 AM
Sun, Dec 11
10:00 AM
Sun, Dec 11
11:00 AM
Sun, Dec 11
12:00 PM
Sun, Dec 11
1:00 PM
Sun, Dec 11
2:00 PM
Sun, Dec 11
3:00 PM
Sun, Dec 11
4:00 PM
Sun, Dec 11
5:00 PM
Sun, Dec 11
6:00 PM
Sun, Dec 11
7:00 PM
Sun, Dec 11
8:00 PM
Sun, Dec 11
9:00 PM
Sun, Dec 11
10:00 PM
Condition
Clouds

Clouds

Clouds

Clouds

Clouds

Clouds

Clouds

Clouds

Clouds

Clouds

Clouds

Clouds

Clouds

Clouds

Clear

Clear

Clear

Clear

Clear

Clear

Clear

Clear

Clear

Clear

Clouds

Clouds

Clouds

Clouds

Clouds

Clouds

Clouds

Clouds

Clouds

Clouds

Clouds

Clouds

Clouds

Clouds

Clouds

Clouds

Clouds

Clouds

Clouds

Clouds

Clouds

Clouds

Clouds

Clouds
Temperature 30°F30°F30°F31°F30°F28°F26°F26°F26°F26°F25°F28°F29°F30°F30°F29°F28°F25°F19°F18°F17°F16°F14°F13°F13°F14°F12°F11°F11°F11°F12°F14°F17°F20°F22°F25°F27°F28°F30°F30°F29°F27°F24°F24°F23°F23°F23°F23°F
Feels Like 23°F23°F24°F23°F22°F20°F17°F16°F16°F16°F16°F19°F21°F22°F22°F21°F19°F17°F11°F9°F8°F8°F6°F5°F5°F7°F6°F5°F11°F11°F12°F14°F10°F12°F15°F17°F19°F20°F22°F23°F21°F19°F15°F15°F14°F13°F13°F13°F
Cloudiness 100%100%100%100%100%100%98%97%100%100%90%81%67%57%6%6%6%6%6%6%6%6%6%8%26%38%27%33%47%56%64%70%100%100%100%100%100%100%100%100%100%98%91%92%42%30%24%23%
Visibility 1 mi2 mi6 mi6 mi6 mi6 mi6 mi6 mi6 mi6 mi6 mi6 mi6 mi6 mi6 mi6 mi6 mi6 mi6 mi6 mi6 mi6 mi6 mi6 mi6 mi6 mi6 mi6 mi6 mi4 mi4 mi6 mi6 mi6 mi6 mi6 mi6 mi6 mi6 mi6 mi6 mi6 mi6 mi6 mi6 mi6 mi6 mi6 mi
Precipitation 0%0%0%0%0%0%0%0%0%0%0%0%0%0%0%0%0%0%0%0%0%0%0%0%0%0%0%0%0%0%0%0%0%0%0%0%0%0%0%0%0%0%0%0%0%0%0%0%
Humidity 81%76%81%85%89%93%97%97%96%95%95%94%93%91%90%90%90%91%94%95%95%96%96%97%97%96%97%97%97%97%97%97%96%94%94%92%90%89%89%90%90%91%92%92%91%90%90%89%
Dew Point 26°F25°F26°F27°F27°F27°F25°F25°F24°F24°F24°F26°F27°F28°F27°F27°F25°F23°F17°F16°F15°F14°F12°F11°F11°F12°F10°F9°F9°F9°F10°F13°F15°F18°F20°F23°F24°F26°F27°F27°F27°F25°F22°F22°F21°F20°F20°F20°F
Pressure 30.12"30.12"30.12"30.12"30.15"30.12"30.15"30.12"30.15"30.12"30.12"30.12"30.12"30.12"30.09"30.12"30.12"30.15"30.18"30.21"30.24"30.24"30.24"30.27"30.27"30.27"30.27"30.3"30.3"30.3"30.3"30.27"30.27"30.27"30.27"30.27"30.24"30.21"30.18"30.18"30.15"30.18"30.18"30.18"30.18"30.21"30.18"30.18"
Wind Speed 7.2 mph7.4 mph6.9 mph7.8 mph8.1 mph8.4 mph8.6 mph10.1 mph9.4 mph10 mph9.5 mph9.7 mph9 mph8.9 mph8.2 mph8.5 mph9.6 mph7.6 mph5.3 mph6.8 mph6.2 mph5.9 mph5.2 mph4.7 mph4.4 mph4.3 mph3.5 mph3.6 mph2.8 mph2.9 mph2.2 mph2.6 mph4.5 mph5.7 mph6 mph6.5 mph8 mph9.1 mph8.5 mph7.8 mph8.3 mph8.4 mph8.2 mph8.4 mph8.6 mph8.9 mph9.6 mph9.8 mph
Wind
Direction
160°
SSE
168°
SSE
171°
S
158°
SSE
153°
SSE
158°
SSE
167°
SSE
166°
SSE
173°
S
174°
S
178°
S
196°
SSW
211°
SSW
231°
SW
252°
WSW
262°
W
271°
W
287°
WNW
281°
W
277°
W
279°
W
280°
W
296°
WNW
295°
WNW
302°
WNW
300°
WNW
312°
NW
274°
W
260°
W
228°
SW
200°
SSW
139°
SE
109°
ESE
120°
ESE
132°
SE
152°
SSE
158°
SSE
155°
SSE
151°
SSE
136°
SE
128°
SE
126°
SE
126°
SE
124°
SE
126°
SE
134°
SE
137°
SE
138°
SE

Daily Forecast

Date High Low Precip. Humidity
Today
Dec 9

Snow
30 °F
26 °F
100%
94%
Saturday
Dec 10

Clouds
31 °F
13 °F
0%
91%
Sunday
Dec 11

Clouds
30 °F
11 °F
0%
89%
Monday
Dec 12

Clouds
34 °F
23 °F
0%
90%
Tuesday
Dec 13

Rain
35 °F
33 °F
100%
98%
Wednesday
Dec 14

Snow
34 °F
27 °F
85%
95%
Thursday
Dec 15

Snow
31 °F
25 °F
39%
93%
Friday
Dec 16

Snow
28 °F
19 °F
40%
90%
Saturday
Dec 17

Clouds
25 °F
15 °F
0%
88%
Sunday
Dec 18

Snow
31 °F
22 °F
29%
89%
Monday
Dec 19

Clouds
22 °F
4 °F
0%
85%
Tuesday
Dec 20

Clouds
5 °F
-2 °F
14%
84%
Wednesday
Dec 21

Clouds
23 °F
0 °F
0%
90%
Thursday
Dec 22

Snow
27 °F
19 °F
100%
93%
Friday
Dec 23

Clear
22 °F
15 °F
80%
85%
Saturday
Dec 24

Clouds
25 °F
2 °F
0%
78%

Temperature 8-14 Day Outlook



Precipitation 8-14 Day Outlook




Quick Links
Spirit Lake News
Spirit Lake Photos
Spirit Lake Videos




About Us
Contact Us
Site Map
Search Site
Advertise With Us
   
Spirit.USLakes.info
THE SPIRIT LAKE WEBSITE

Copyright 2022, Lakes Online
Privacy    |    Legal